Showing default

EUTELSAT QUANTUM, 49056

Orbit data source: Space-Track

EUTELSAT QUANTUM, 49056 is a payload satellite owned by EutelsatSA (FR) in GEO that was launched on Fri, 30 Jul 2021 UTC via an ARIANE 5ECA+ launch vehicle from the French Guiana (FRGUI). Payload-class satellites include a variety of spacecraft equipped with specific instruments for various scientific and technological missions. These include communications satellites like Starlink; space stations such as the ISS; scientific satellites like the Hubble; Earth observation satellites from companies like Planet Labs, Umbra, and HawkEye 360; GPS; miniature CubeSats for education and research; and military/defense satellites.

Not visible in the next 10 days
Identifier
49056, 2021-069B
Orbit
GEO
Country
Flag of FRFR / EUTE
Related business
Manufacturer
ADST/SSTLA
Mission
Operational Commercial Communications
Bus & Motor
GMP-T, S-400?
Mass
3,461 kg wet, ~2,000 kg dry
Launch date (UTC)
2021-07-30 (5 years ago)
Launch vehicle
ARIANE 5ECA+
Launch site
French Guiana (FRGUI)
Object type
Payload
Rocket body
Debris
Shape & HBR
Box + 2 Pan, 8.5 m
Radar Cross Section
19.103 m², Large (>1 m²)

Expand to show TLE details & history
Last TLE update: 4 days ago

TLE from 4 days ago
0 EUTELSAT QUANTUM
1 49056U 21069B   26169.76238150  .00000120  00000-0  00000-0 0  9991
2 49056   0.0145  22.6393 0002112  63.8054 142.7031  1.00272154 17944
Epoch: 2026-06-18T18:17Z
TLE epoch observation values (Epoch: 2026-06-18T18:17:49.761Z)
Latitude
-0.02023°
Longitude
47.71645°
Altitude
35,793.101 km
Speed
3.074 km/s
True Right ascension
15h 16m 41s
True Declination
0° 01' 13"
Sunlit
Object was in daylight at epoch
Visualization orbit readout
Latitude
Unknown
Longitude
Unknown
Altitude
Unknown
Speed
Unknown
Apparent Right ascension
Unknown
Apparent Declination
Unknown
Sunlit
N/A
Visualization observer readout
Local Sidereal Time
21:33:51
Azimuth
Unknown
Elevation
Unknown
Doppler factor
Unknown
Orbital elements
Apogee altitude
35,796.467 km
Perigee altitude
35,778.657 km
Semi-major axis
42,165.699 km
Eccentricity
0.00021
Inclination
0.0145°
RAAN
22.6393°
Arg. of periapsis
63.8054°
True anomaly
142.71776°
Mean anomaly
142.7031°
Eccentric anomaly
142.71043°
Mean motion
0.25067 °/min
Orbital period
1,436.14 mins
BSTAR
0
Loading maneuver chart data...
Computing Atmospheric mass density...
Loading historical data...
Loading historical data...
Loading historical data...
Loading historical data...
Loading historical data...
Loading historical data...
Loading historical data...
Other satellites on launch #69 in the year 2021 (2021-07-30 UTC)

Documentation

Showing up to 5 results
|